Date String (YYYY-MM-DD hh:mm:ss) UTC,Instrument flags,absolute air pressure of the measurement (hPa),sample flow rate (lpm),inlet stack bypass flow (lpm),air temperature of the measurement (°C),ambient temperature measured by the external sensor (°C),aerosol sample conditioner tube jacket temperature (°C),OPC LED temperature (°C),internal box temperature (°C),relative humidity of the measurement (%),span deviation,mass concentration of particles derived from Lorenz-Mie calculation of OPC scattering (μg/m³),mass concentration of particles derived from Lorenz-Mie calculation of OPC scattering (μg/m³),mass concentration of particles derived from Lorenz-Mie calculation of OPC scattering (μg/m³)
DateTimeUTC,F1_M11,P_M11,Q1_M11,Q2_M11,T1_M11,T2_M11,T3_M11,T4_M11,T5_M11,U1_M11,ZSPAN_M11,X0_M11,X2_M11,X1_M11
2024-03-03 12:00:00,SystemResetWarning,0815.1,5.00,000.00,019.9,019.1,000.0,028.5,021.7,09.0,0000.0,0004.88,0000.39,0000.11
2024-03-03 12:01:00,SystemResetWarning,0815.0,5.00,000.00,019.9,019.1,000.0,028.5,021.6,08.9,0000.0,0003.46,0000.36,0000.11
2024-03-03 12:02:00,SystemResetWarning,0814.9,5.00,000.00,019.9,019.1,000.0,028.5,021.6,08.9,0000.0,0003.29,0000.40,0000.12
2024-03-03 12:03:00,SystemResetWarning,0814.8,4.99,000.00,019.9,019.1,000.0,028.5,021.6,09.3,0000.0,0003.03,0000.41,0000.12
2024-03-03 12:04:00,SystemResetWarning,0814.5,5.00,000.00,019.9,019.1,000.0,028.5,021.7,09.3,0000.0,0001.11,0000.40,0000.12
2024-03-03 12:05:00,SystemResetWarning,0814.3,5.00,000.00,019.9,019.1,000.0,028.4,021.6,09.2,0000.0,0001.07,0000.40,0000.12
2024-03-03 12:06:00,SystemResetWarning,0814.4,5.01,000.00,019.9,019.1,000.0,028.4,021.6,09.5,0000.0,0001.02,0000.38,0000.12
2024-03-03 12:07:00,SystemResetWarning,0814.6,5.00,000.00,019.9,019.1,000.0,028.4,021.6,09.2,0000.0,0001.49,0000.38,0000.12
2024-03-03 12:08:00,SystemResetWarning,0814.9,5.00,000.00,019.9,019.1,000.0,028.4,021.7,08.5,0000.0,0001.79,0000.41,0000.12
2024-03-03 12:09:00,SystemResetWarning,0815.1,5.00,000.00,019.8,019.1,000.0,028.4,021.6,08.5,0000.0,0001.83,0000.45,0000.13
2024-03-03 12:10:00,SystemResetWarning,0815.3,4.99,000.00,019.8,019.0,000.0,028.4,021.6,08.4,0000.0,0001.89,0000.47,0000.13
2024-03-03 12:11:00,SystemResetWarning,0815.3,4.99,000.00,019.8,019.0,000.0,028.4,021.6,08.4,0000.0,0001.81,0000.45,0000.13
2024-03-03 12:12:00,SystemResetWarning,0815.3,5.00,000.00,019.8,019.0,000.0,028.4,021.6,08.4,0000.0,0001.75,0000.43,0000.13
2024-03-03 12:13:00,SystemResetWarning,0815.2,5.01,000.00,019.8,019.0,000.0,028.4,021.6,08.5,0000.0,0001.68,0000.37,0000.12
2024-03-03 12:14:00,SystemResetWarning,0815.2,5.01,000.00,019.8,019.0,000.0,028.4,021.6,08.6,0000.0,0001.72,0000.38,0000.12
2024-03-03 12:15:00,SystemResetWarning,0815.2,5.01,000.00,019.8,019.0,000.0,028.4,021.6,08.4,0000.0,0001.73,0000.38,0000.12
2024-03-03 12:16:00,SystemResetWarning,0815.3,4.99,000.00,019.8,019.0,000.0,028.4,021.5,08.3,0000.0,0001.78,0000.38,0000.13
2024-03-03 12:17:00,SystemResetWarning,0815.6,4.99,000.00,019.8,018.9,000.0,028.4,021.5,08.5,0000.0,0001.80,0000.38,0000.13
2024-03-03 12:18:00,SystemResetWarning,0815.7,4.99,000.00,019.8,018.9,000.0,028.4,021.5,08.4,0000.0,0001.31,0000.37,0000.12
2024-03-03 12:19:00,SystemResetWarning,0815.8,5.00,000.00,019.7,018.9,000.0,028.3,021.5,08.4,0000.0,0000.99,0000.34,0000.12
2024-03-03 12:20:00,SystemResetWarning,0815.7,5.01,000.00,019.7,018.9,000.0,028.3,021.5,08.6,0000.0,0001.63,0000.31,0000.12
2024-03-03 12:21:00,SystemResetWarning,0815.6,5.01,000.00,019.7,018.8,000.0,028.3,021.4,08.3,0000.0,0001.66,0000.30,0000.12
2024-03-03 12:22:00,SystemResetWarning,0815.6,5.00,000.00,019.7,018.8,000.0,028.3,021.4,08.3,0000.0,0001.66,0000.31,0000.12
2024-03-03 12:23:00,SystemResetWarning,0815.5,5.00,000.00,019.7,018.8,000.0,028.3,021.4,08.6,0000.0,0001.67,0000.32,0000.12
2024-03-03 12:24:00,SystemResetWarning,0815.3,4.99,000.00,019.7,018.8,000.0,028.3,021.4,08.8,0000.0,0001.64,0000.33,0000.12
2024-03-03 12:25:00,SystemResetWarning,0815.1,5.00,000.00,019.7,018.8,000.0,028.2,021.4,08.5,0000.0,0001.69,0000.33,0000.12
2024-03-03 12:26:00,SystemResetWarning,0814.9,5.00,000.00,019.6,018.7,000.0,028.2,021.3,08.5,0000.0,0001.85,0000.37,0000.13
2024-03-03 12:27:00,SystemResetWarning,0815.0,5.00,000.00,019.6,018.7,000.0,028.2,021.3,08.7,0000.0,0001.93,0000.38,0000.12
2024-03-03 12:28:00,SystemResetWarning,0815.1,5.02,000.00,019.6,018.7,000.0,028.2,021.3,08.7,0000.0,0002.01,0000.40,0000.13
2024-03-03 12:29:00,SystemResetWarning,0815.1,5.01,000.00,019.6,018.7,000.0,028.2,021.3,08.6,0000.0,0003.71,0000.42,0000.13
2024-03-03 12:30:00,SystemResetWarning,0815.0,4.99,000.00,019.6,018.7,000.0,028.2,021.3,08.5,0000.0,0003.76,0000.40,0000.13
2024-03-03 12:31:00,SystemResetWarning,0815.1,4.99,000.00,019.6,018.7,000.0,028.2,021.3,08.3,0000.0,0003.04,0000.36,0000.13
2024-03-03 12:32:00,SystemResetWarning,0815.2,5.00,000.00,019.5,018.7,000.0,028.2,021.3,08.8,0000.0,0002.85,0000.35,0000.12
2024-03-03 12:33:00,SystemResetWarning,0815.2,5.01,000.00,019.5,018.7,000.0,028.2,021.3,08.4,0000.0,0002.87,0000.34,0000.12
2024-03-03 12:34:00,SystemResetWarning,0815.2,5.01,000.00,019.5,018.7,000.0,028.2,021.3,08.4,0000.0,0002.86,0000.34,0000.12
2024-03-03 12:35:00,SystemResetWarning,0815.2,5.01,000.00,019.5,018.7,000.0,028.1,021.3,08.2,0000.0,0002.81,0000.32,0000.12
2024-03-03 12:36:00,SystemResetWarning,0815.3,5.01,000.00,019.5,018.7,000.0,028.1,021.3,08.0,0000.0,0002.70,0000.31,0000.12
2024-03-03 12:37:00,SystemResetWarning,0815.6,4.99,000.00,019.5,018.7,000.0,028.1,021.3,08.4,0000.0,0002.57,0000.28,0000.11
2024-03-03 12:38:00,SystemResetWarning,0815.7,4.99,000.00,019.5,018.7,000.0,028.1,021.3,08.4,0000.0,0002.43,0000.25,0000.11
2024-03-03 12:39:00,SystemResetWarning,0815.8,5.00,000.00,019.5,018.7,000.0,028.1,021.3,08.3,0000.0,0002.49,0000.27,0000.11
2024-03-03 12:40:00,SystemResetWarning,0815.8,5.01,000.00,019.5,018.7,000.0,028.1,021.2,08.4,0000.0,0000.80,0000.28,0000.12
2024-03-03 12:41:00,SystemResetWarning,0815.9,5.00,000.00,019.5,018.7,000.0,028.1,021.2,08.5,0000.0,0000.76,0000.29,0000.12
2024-03-03 12:42:00,SystemResetWarning,0815.8,4.99,000.00,019.5,018.6,000.0,028.1,021.2,09.4,0000.0,0000.82,0000.31,0000.12
2024-03-03 12:43:00,SystemResetWarning,0815.8,5.00,000.00,019.4,018.6,000.0,028.0,021.2,09.0,0000.0,0001.58,0000.31,0000.13
2024-03-03 12:44:00,SystemResetWarning,0815.8,5.01,000.00,019.4,018.6,000.0,028.0,021.2,09.0,0000.0,0001.69,0000.30,0000.13
2024-03-03 12:45:00,SystemResetWarning,0815.8,5.01,000.00,019.4,018.6,000.0,028.0,021.2,09.2,0000.0,0001.80,0000.34,0000.13
2024-03-03 12:46:00,SystemResetWarning,0815.8,4.99,000.00,019.4,018.6,000.0,028.0,021.1,09.6,0000.0,0001.80,0000.34,0000.13
2024-03-03 12:47:00,SystemResetWarning,0816.1,4.99,000.00,019.4,018.6,000.0,028.0,021.1,09.1,0000.0,0001.85,0000.36,0000.14
2024-03-03 12:48:00,SystemResetWarning,0816.2,5.00,000.00,019.4,018.6,000.0,028.0,021.1,08.6,0000.0,0002.01,0000.36,0000.14
2024-03-03 12:49:00,SystemResetWarning,0816.4,5.01,000.00,019.4,018.6,000.0,028.0,021.1,08.7,0000.0,0001.94,0000.35,0000.13
2024-03-03 12:50:00,SystemResetWarning,0816.5,5.01,000.00,019.4,018.6,000.0,028.0,021.1,09.1,0000.0,0001.79,0000.30,0000.13
2024-03-03 12:51:00,SystemResetWarning,0816.5,5.00,000.00,019.4,018.6,000.0,028.0,021.1,09.0,0000.0,0001.77,0000.30,0000.12
2024-03-03 12:52:00,SystemResetWarning,0816.4,5.00,000.00,019.4,018.6,000.0,027.9,021.1,08.8,0000.0,0001.77,0000.30,0000.12
2024-03-03 12:53:00,SystemResetWarning,0816.2,4.99,000.00,019.4,018.5,000.0,027.9,021.1,08.5,0000.0,0001.77,0000.30,0000.12
2024-03-03 12:54:00,SystemResetWarning,0816.3,4.99,000.00,019.3,018.5,000.0,027.9,021.0,08.4,0000.0,0000.96,0000.31,0000.11
2024-03-03 12:55:00,SystemResetWarning,0816.3,5.00,000.00,019.3,018.5,000.0,027.9,021.0,08.5,0000.0,0000.85,0000.33,0000.11
2024-03-03 12:56:00,SystemResetWarning,0816.2,5.01,000.00,019.3,018.5,000.0,027.9,021.0,08.4,0000.0,0000.76,0000.30,0000.11
2024-03-03 12:57:00,SystemResetWarning,0816.2,5.00,000.00,019.3,018.5,000.0,027.9,021.0,08.4,0000.0,0000.74,0000.30,0000.11
2024-03-03 12:58:00,SystemResetWarning,0816.5,5.00,000.00,019.3,018.5,000.0,027.9,021.0,08.4,0000.0,0000.72,0000.29,0000.11
2024-03-03 12:59:00,SystemResetWarning,0816.3,5.00,000.00,019.3,018.5,000.0,027.9,021.0,08.3,0000.0,0000.80,0000.28,0000.11
